Location: ??
(35.5052°N, 139.7262°E)
Time: 19:20:23
(UTC+00:00)

CZ-2C R/B - Visible Passes

Search period start: 16 October 2021 00:00
Search period end: 26 October 2021 00:00
Orbit: 389 x 575 km, 35.0° (Epoch: 16 October)

Date Brightness Start Highest point End Pass type
(mag) Time Alt. Az. Time Alt. Az. Time Alt. Az.
16 Oct 1.7 09:48:00 10° WSW 09:50:25 40° SW 09:50:25 40° SW visible
17 Oct 0.9 09:19:19 10° WSW 09:22:40 58° SSE 09:23:20 46° ESE visible
18 Oct 1.0 08:50:36 10° WSW 08:54:03 59° SSE 08:56:12 19° E visible
18 Oct 4.1 10:30:04 10° W 10:30:24 12° W 10:30:24 12° W visible
19 Oct 1.1 08:21:53 10° WSW 08:25:24 60° SSE 08:28:43 10° E visible
19 Oct 2.7 10:01:22 10° W 10:03:14 30° W 10:03:14 30° W visible
20 Oct 0.7 09:32:39 10° W 09:36:03 82° SSW 09:36:03 82° SSW visible
21 Oct 0.7 09:03:54 10° W 09:07:27 83° S 09:08:53 32° E visible
22 Oct 0.9 08:35:07 10° W 08:38:46 83° S 08:41:43 13° E visible
22 Oct 3.6 10:14:47 10° W 10:15:54 18° W 10:15:54 18° W visible
23 Oct 2.1 09:46:01 10° W 09:48:46 37° SW 09:48:46 37° SW visible
24 Oct 1.7 09:17:13 10° W 09:20:40 42° SSW 09:21:42 32° SSE visible
25 Oct 1.9 08:48:23 10° W 08:51:56 43° SSW 08:54:42 14° SE visible
